Showing default

POEM 2, 56308

Orbit data source: Space-Track

POEM 2, 56308 is a payload satellite owned by ISRO (IN) in LEO that was launched on Sat, 22 Apr 2023 UTC via a PSLV launch vehicle from the Sirharikota (SRI). Payload-class satellites include a variety of spacecraft equipped with specific instruments for various scientific and technological missions. These include communications satellites like Starlink; space stations such as the ISS; scientific satellites like the Hubble; Earth observation satellites from companies like Planet Labs, Umbra, and HawkEye 360; GPS; miniature CubeSats for education and research; and military/defense satellites.

Not visible in the next 10 days
Identifier
56308, 2023-057A
Orbit
LEO
Country
Flag of ININ / IND
Related business
Manufacturer
ISRO SAC/Banga
Mission
Operational Civil Technology
Bus & Motor
POEM, Unknown motor
Mass
50 kg wet, ~50 kg dry
Launch date (UTC)
2023-04-22 (3 years ago)
Launch vehicle
PSLV
Launch site
Sirharikota (SRI)
Object type
Payload
Rocket body
Debris
Shape & HBR
Cyl + Box, 1.8 m
Radar Cross Section
5.588 m², Large (>1 m²)

Expand to show TLE details & history
Last TLE update: 14 hours ago

TLE from 14 hours ago
0 POEM 2
1 56308U 23057A   26093.54010358  .00004101  00000-0  30309-3 0  9999
2 56308   9.8883  84.3559 0021338 311.1255  48.7116 14.94765650161078
Epoch: 2026-04-03T12:57Z
TLE epoch observation values (Epoch: 2026-04-03T12:57:44.949Z)
Latitude
Longitude
58.04585°
Altitude
570.358 km
Speed
7.584 km/s
True Right ascension
05h 37m 25s
True Declination
0° 00' 00"
Sunlit
Object was in daylight at epoch
Visualization orbit readout
Latitude
Unknown
Longitude
Unknown
Altitude
Unknown
Speed
Unknown
Apparent Right ascension
Unknown
Apparent Declination
Unknown
Sunlit
N/A
Visualization observer readout
Local Sidereal Time
09:09:49
Azimuth
Unknown
Elevation
Unknown
Doppler factor
Unknown
Orbital elements
Apogee altitude
604.022 km
Perigee altitude
574.289 km
Semi-major axis
6,967.292 km
Eccentricity
0.00213
Inclination
9.8883°
RAAN
84.3559°
Arg. of periapsis
311.1255°
True anomaly
48.89565°
Mean anomaly
48.7116°
Eccentric anomaly
48.80359°
Mean motion
3.73205 °/min
Orbital period
96.46 mins
BSTAR
0.00030309
Loading maneuver chart data...
Computing Atmospheric mass density...
Loading historical data...
Loading historical data...
Loading historical data...
Loading historical data...
Loading historical data...
Loading historical data...
Loading historical data...
Other satellites on launch #57 in the year 2023 (2023-04-22 UTC)

Documentation

Showing up to 5 results
|